Regional Weather Roundup
Issued by NWS Upton, NY

Current Version | Previous Version | Graphics & Text | Print | Product List | Glossary Off
Versions: 1 2 3 4 5 6 7 8 9 10 11 12 13 14 15 16 17 18 19 20 21 22 23 24 25 26 27 28 29 30 31 32 33 34 35 36 37 38 39 40 41 42 43 44 45 46 47 48 49 50

000
ASUS41 KOKX 210908
RWROKX

REGIONAL WEATHER ROUNDUP
NATIONAL WEATHER SERVICE NEW YORK NY
400 AM EST TUE NOV 21 2017

NOTE: "FAIR" INDICATES FEW OR NO CLOUDS BELOW 12,000 FEET WITH NO
SIGNIFICANT WEATHER AND/OR OBSTRUCTIONS TO VISIBILITY.

NYZ071-072-176-178-NJZ106-104-211000-
NEW YORK CITY METRO AREA

CITY           SKY/WX    TMP DP  RH WIND       PRES   REMARKS
Central Park   CLOUDY    43  29  57 SW5       30.14F
Bronx Bot Gard   N/A     43  28  56 SW5       30.12F
LaGuardia APRT CLOUDY    45  29  53 SW15G24   30.12S
Kennedy INTL   CLOUDY    43  33  68 SW15      30.14F
Breezy Point     N/A     43 N/A N/A SW13G21     N/A
Newark/Liberty CLOUDY    38  28  67 SW9       30.13F WCI  31
Teterboro      CLOUDY    37  26  64 CALM      30.12S
$$

NYZ177-179-078>081-211000-
LONG ISLAND NEW YORK

CITY           SKY/WX    TMP DP  RH WIND       PRES   REMARKS
Jones Beach      N/A     46 N/A N/A SW14G23     N/A
Matinecock PT    N/A     45 N/A N/A SW10        N/A
Farmingdale    CLEAR     41  29  62 W5        30.14S
MacArthur/ISP  CLEAR     42  31  64 SW8       30.13S
Shirley        PTCLDY    44  33  65 SW7       30.14F
Mt Sinai Harb    N/A    N/A N/A N/A S5          N/A
Westhampton    CLEAR     39  30  70 SW7       30.15F WCI  34
East Hampton   FAIR      42  30  62 W3        30.14S
Southold       NOT AVBL
Montauk          N/A     47  33  58 SW9       30.15R
$$

NYZ052-065-067-211000-
HUDSON VALLEY

CITY           SKY/WX    TMP DP  RH WIND       PRES   REMARKS
White Plains   CLEAR     37  23  56 CALM      30.10S
Larchmont Harb   N/A     43 N/A N/A SW12        N/A
Croton On Huds   N/A     39 N/A N/A S2          N/A
Newburgh       CLEAR     30  27  86 CALM      30.09S
Montgomery     CLEAR     26  22  84 CALM      30.07S
Poughkeepsie   CLEAR     26  21  81 CALM      30.08S
Albany         CLEAR     34  24  67 S6        30.02F WCI  29
$$

NJZ001-105-106-008-010-013-015-019>022-104-211000-
NEW JERSEY

CITY           SKY/WX    TMP DP  RH WIND       PRES   REMARKS
Newark/Liberty CLOUDY    38  28  67 SW9       30.13F WCI  31
Teterboro      CLOUDY    37  26  64 CALM      30.12S
Caldwell       CLOUDY    38  24  57 SW3       30.12F
Somerville     CLOUDY    27  25  92 CALM      30.11F
Linden         FAIR      38  27  62 CALM      30.14S
Perth Amboy      N/A     37 N/A N/A W2          N/A
Sussex         CLOUDY    31  24  75 SW5       30.08F WCI  26
Andover          N/A     28  25  88 CALM      30.09F
Trenton        CLOUDY    33  26  75 CALM      30.13F
Millville      PTCLDY    45  36  70 CALM      30.16F
Atlantic City  PTCLDY    40  35  83 S5        30.17F
Wrightstown    CLOUDY    35  29  80 SW6       30.12F WCI  30
Toms River     CLOUDY    37  31  78 SW8       30.17S WCI  31
Belmar         PTCLDY    41  29  62 S8        30.15F
$$

PAZ047>061-062-071-211000-
EASTERN PENNSYLVANIA

CITY           SKY/WX    TMP DP  RH WIND       PRES   REMARKS
Philadelphia   PTCLDY    40  30  67 S7        30.14F
Allentown      PTCLDY    27  22  81 CALM      30.10F
Scranton       CLEAR     34  23  64 CALM      30.03F
$$

CTZ002-004>006-009-010-012-RIZ004-006-007-MAZ004-011-015-211000-
SOUTHERN NEW ENGLAND
 IN CT

CITY           SKY/WX    TMP DP  RH WIND       PRES   REMARKS
Bradley INTL   PTCLDY    32  25  75 S8        30.08S WCI  25
Hartford       CLEAR     38  25  59 S6        30.11R WCI  33
Danbury        CLEAR     34  23  64 CALM      30.10F
Wtrbury/Oxford CLEAR     33  23  66 S5        30.09S WCI  29
Norwalk Harbor   N/A     43 N/A N/A W12         N/A
Bridgeport     CLEAR     40  26  57 W5        30.12S
Meriden        CLEAR     28  25  88 CALM      30.11S
New Haven      CLEAR     44  28  53 W8        30.12S
Chester        FAIR      39  28  65 SW5       30.11R
Groton         CLEAR     47  32  56 SW15G23   30.12S
Wilimantic     CLEAR     30  25  81 CALM      30.11S

 IN RI

CITY           SKY/WX    TMP DP  RH WIND       PRES   REMARKS
Providence     CLEAR     38  27  64 SW7       30.12S WCI  33
Block Island   CLEAR     48  31  51 W18       30.14S
Westerly       CLEAR     47  33  58 SW13      30.13S
 IN MA

CITY           SKY/WX    TMP DP  RH WIND       PRES   REMARKS
Boston         CLEAR     37  27  67 SW8       30.10S WCI  31
Worcester      CLEAR     31  22  69 SW10      30.04F WCI  22
Westfield      PTCLDY    34  25  69 SE7       30.06F WCI  28
Provincetown   CLEAR     42  29  59 SW15      30.13S
Nantucket      CLEAR     47  34  60 W14       30.15S
$$

ANZ330-335-338-340-345-350-353-355-211000-
COASTAL MARINE OBSERVATIONS


STATION/POSITION TIME  SKY/WX   TEMP    WIND        PRES    VSBY  WAVE
                                AIR SEA DIR/SP/G                  HT/PER
                 (UTC)          (F)     (DEG/KT/KT) (MB)    (MI)  (FT/S)
NY HARB ENTRANCE 0850            50 58  240/ 23/ 27 1019.6          4/ 5
20 S FIRE ISLAND 0850            53 56  240/ 23/ 27 1020.6          6/ 6
GREAT SOUTH BAY  0830            47 46  250/ 14/ 16   N/A
HUDSON CANYON    0850            55 59  240/ 17/ 21 1021.7          5/ 6
KINGS POINT      0824            45 50  270/ 15/ 18 1020.6
EXECUTION ROCKS  0830            47     210/ 10/ 14   N/A
WESTERN LI SOUND 0749            48     230/ 16/ 23   N/A           1/ 3
CENTRAL LI SOUND 0815            48     230/ 17/ 21   N/A           3
ROBBINS REEF     0842            41     240/ 16/ 19 1020.7
$$


>>>>>>>>>>>>>>>>>>>>>>>>>>>> KEY <<<<<<<<<<<<<<<<<<<<<<<<<<<
>                                                          <
>     SKY/WX - Sky Condition/Present Weather               <
>     TMP    - Temperature in Fahrenheit                   <
>     DP     - Dew Point in Fahrenheit                     <
>     RH     - Relative Humidity in Percent                <
>     WIND   - Direction (from) and Speed in MPH           <
>     PRES   - Mean Sea Level Pressure (inches of Hg)      <
>     WCI    - Wind Chill Index                            <
>     VSB    - VISIBILITY IN MILES                         <
>     HX     - HEAT INDEX                                  <
>     TC     - TEMPERATURE IN CELSIUS                      <
>     VRB    - VARIABLE WIND DIRECTION                     <
>                                                          <
>>>>>>>>>>>>>>>>>>>>>>>>>>>> KEY <<<<<<<<<<<<<<<<<<<<<<<<<<<



USA.gov is the U.S. government's official web portal to all federal, state and local government web resources and services.